QPF
0.00 0.00 0.00 0.00 0.00 0.00 0.00 0.00 0.00 0.00 0.00 0.00 0.00 0.00 0.00 0.00 0.00 0.00 0.00 0.00 0.00 0.00 0.00 0.00 0.00 0.00 0.00 0.00 0.00 0.00 0.00 0.00 0.00 0.00 0.00 0.00 0.00 0.00 0.00 0.00 0.00 0.00 0.00
0.00 0.00 0.00 0.00 0.00 0.00 0.00 0.00 0.00 0.00 0.00 0.00 0.00 0.00 0.00 0.00 0.00 0.00 0.00 0.00 0.00 0.00 0.00 0.00 0.00 0.00 0.00 0.00 0.00 0.00 0.00 0.00 0.00 0.00 0.00 0.00 0.00 0.00 0.00 0.00 0.00 0.00 0.00
0.00 0.00 0.00 0.00 0.00 0.00 0.00 0.00 0.00 0.00 0.00 0.00 0.00 0.00 0.00 0.00 0.00 0.00 0.00 0.00 0.00 0.00 0.00 0.00 0.00 0.00 0.00 0.00 0.00 0.00 0.00 0.00 0.00 0.00 0.00 0.00 0.00 0.00 0.00 0.00 0.00 0.00 0.00
0.00 0.00 0.00 0.00 0.00 0.00 0.00 0.00 0.00 0.00 0.00 0.00 0.00 0.00 0.00 0.00 0.00 0.00 0.00 0.00 0.00 0.00 0.00 0.00 0.00 0.00 0.00 0.00 0.00 0.00 0.00 0.00 0.00 0.00 0.00 0.00 0.00 0.00 0.00 0.00 0.00 0.00 0.00
0.00 0.00 0.00 0.00 0.00 0.00 0.00 0.00 0.00 0.00 0.00 0.00 0.00 0.00 0.00 0.00 0.00 0.00 0.00 0.00 0.00 0.00 0.00 0.00 0.00 0.00 0.00 0.00 0.00 0.00 0.00 0.00 0.00 0.00 0.00 0.00 0.00 0.00 0.00 0.00 0.00 0.00 0.00
0.01 0.01 0.01 0.00 0.00 0.00 0.00 0.00 0.00 0.00 0.00 0.00 0.00 0.00 0.00 0.00 0.00 0.00 0.00 0.00 0.00 0.00 0.00 0.00 0.00 0.00 0.00 0.00 0.00 0.00 0.00 0.00 0.00 0.00 0.00 0.00 0.00 0.00 0.00 0.00 0.00 0.00 0.00
0.04 0.02 0.01 0.00 0.00 0.00 0.00 0.00 0.00 0.00 0.00 0.00 0.00 0.00 0.00 0.00 0.00 0.00 0.00 0.00 0.00 0.00 0.00 0.00 0.00 0.00 0.00 0.00 0.00 0.00 0.00 0.00 0.00 0.00 0.00 0.00 0.00 0.00 0.00 0.00 0.00 0.01 0.01
0.06 0.03 0.02 0.01 0.00 0.00 0.00 0.00 0.00 0.00 0.00 0.00 0.00 0.00 0.00 0.00 0.00 0.00 0.00 0.00 0.00 0.00 0.00 0.00 0.00 0.00 0.00 0.00 0.00 0.00 0.00 0.00 0.00 0.00 0.00 0.00 0.00 0.00 0.00 0.01 0.01 0.01 0.01
0.07 0.04 0.03 0.01 0.01 0.00 0.00 0.00 0.00 0.00 0.00 0.00 0.00 0.00 0.00 0.00 0.00 0.00 0.00 0.00 0.00 0.00 0.00 0.00 0.00 0.00 0.00 0.00 0.00 0.00 0.00 0.00 0.00 0.00 0.00 0.00 0.00 0.01 0.01 0.01 0.01 0.02 0.02
0.06 0.05 0.03 0.01 0.01 0.00 0.00 0.00 0.00 0.00 0.00 0.00 0.00 0.00 0.00 0.00 0.00 0.00 0.00 0.00 0.00 0.00 0.00 0.00 0.00 0.00 0.00 0.00 0.00 0.00 0.00 0.00 0.00 0.00 0.00 0.00 0.01 0.01 0.02 0.02 0.03 0.03 0.03
0.04 0.03 0.03 0.01 0.01 0.00 0.00 0.00 0.00 0.00 0.00 0.00 0.00 0.00 0.00 0.00 0.00 0.00 0.00 0.00 0.00 0.00 0.00 0.00 0.00 0.00 0.00 0.00 0.00 0.00 0.00 0.00 0.00 0.00 0.00 0.01 0.02 0.02 0.03 0.03 0.04 0.04 0.04
0.03 0.02 0.02 0.01 0.01 0.00 0.00 0.00 0.00 0.00 0.00 0.00 0.00 0.00 0.00 0.00 0.00 0.00 0.00 0.00 0.00 0.00 0.00 0.00 0.00 0.00 0.00 0.00 0.00 0.00 0.00 0.00 0.00 0.00 0.00 0.01 0.02 0.03 0.03 0.04 0.04 0.04 0.04
0.03 0.02 0.01 0.01 0.00 0.00 0.00 0.00 0.00 0.00 0.00 0.00 0.00 0.00 0.00 0.00 0.00 0.00 0.00 0.00 0.00 0.00 0.00 0.00 0.00 0.00 0.00 0.00 0.00 0.00 0.00 0.00 0.00 0.00 0.00 0.01 0.02 0.02 0.02 0.03 0.04 0.04 0.04
0.04 0.03 0.02 0.01 0.00 0.00 0.00 0.00 0.00 0.00 0.00 0.00 0.00 0.00 0.00 0.00 0.00 0.00 0.00 0.00 0.00 0.00 0.00 0.00 0.00 0.00 0.00 0.00 0.00 0.00 0.00 0.00 0.00 0.00 0.00 0.01 0.01 0.01 0.02 0.02 0.03 0.03 0.04
0.03 0.02 0.01 0.00 0.00 0.00 0.00 0.00 0.00 0.00 0.00 0.00 0.00 0.00 0.00 0.00 0.00 0.00 0.00 0.00 0.00 0.00 0.00 0.00 0.00 0.00 0.00 0.00 0.00 0.00 0.00 0.00 0.00 0.00 0.00 0.00 0.01 0.01 0.01 0.02 0.02 0.02 0.03
0.02 0.01 0.00 0.00 0.00 0.00 0.00 0.00 0.00 0.00 0.00 0.00 0.00 0.00 0.00 0.00 0.00 0.00 0.00 0.00 0.00 0.00 0.00 0.00 0.00 0.00 0.00 0.00 0.00 0.00 0.00 0.00 0.00 0.00 0.00 0.00 0.00 0.01 0.01 0.01 0.02 0.02 0.03
0.01 0.01 0.00 0.00 0.00 0.00 0.00 0.00 0.00 0.00 0.00 0.00 0.00 0.00 0.00 0.00 0.00 0.00 0.00 0.00 0.00 0.00 0.00 0.00 0.00 0.00 0.00 0.00 0.00 0.00 0.00 0.00 0.00 0.00 0.00 0.00 0.00 0.00 0.01 0.01 0.01 0.02 0.02
0.01 0.00 0.00 0.00 0.00 0.00 0.00 0.00 0.00 0.00 0.00 0.00 0.00 0.00 0.00 0.00 0.00 0.00 0.00 0.00 0.00 0.00 0.00 0.00 0.00 0.00 0.00 0.00 0.00 0.00 0.00 0.00 0.00 0.00 0.00 0.00 0.00 0.00 0.00 0.01 0.01 0.02 0.02
0.00 0.00 0.00 0.00 0.00 0.00 0.00 0.00 0.00 0.00 0.00 0.00 0.00 0.00 0.00 0.00 0.00 0.00 0.00 0.00 0.00 0.00 0.00 0.00 0.00 0.00 0.00 0.00 0.00 0.00 0.00 0.00 0.00 0.00 0.00 0.00 0.00 0.00 0.00 0.00 0.01 0.01 0.01
0.00 0.00 0.00 0.00 0.00 0.00 0.00 0.00 0.00 0.00 0.00 0.00 0.00 0.00 0.00 0.00 0.00 0.00 0.00 0.00 0.00 0.00 0.00 0.00 0.00 0.00 0.00 0.00 0.00 0.00 0.00 0.00 0.00 0.00 0.00 0.00 0.00 0.00 0.00 0.00 0.00 0.00 0.00
0.00 0.00 0.00 0.00 0.00 0.00 0.00 0.00 0.00 0.00 0.00 0.00 0.00 0.00 0.00 0.00 0.00 0.00 0.00 0.00 0.00 0.00 0.01 0.01 0.01 0.01 0.00 0.00 0.00 0.00 0.00 0.00 0.00 0.00 0.00 0.00 0.00 0.00 0.00 0.00 0.00 0.00 0.00
0.00 0.00 0.00 0.00 0.00 0.00 0.00 0.00 0.00 0.00 0.00 0.00 0.00 0.00 0.00 0.00 0.00 0.00 0.00 0.00 0.01 0.01 0.01 0.02 0.02 0.01 0.01 0.00 0.00 0.00 0.00 0.01 0.01 0.00 0.00 0.00 0.00 0.00 0.00 0.00 0.00 0.00 0.00
0.00 0.00 0.00 0.00 0.00 0.00 0.00 0.00 0.00 0.00 0.00 0.00 0.00 0.00 0.00 0.00 0.00 0.00 0.00 0.00 0.00 0.01 0.02 0.02 0.02 0.01 0.00 0.00 0.00 0.01 0.01 0.01 0.01 0.00 0.00 0.00 0.00 0.00 0.00 0.00 0.00 0.00 0.00
0.01 0.01 0.00 0.00 0.00 0.00 0.00 0.00 0.00 0.00 0.00 0.00 0.00 0.00 0.00 0.00 0.00 0.00 0.00 0.01 0.01 0.01 0.01 0.01 0.00 0.00 0.00 0.00 0.01 0.02 0.02 0.01 0.00 0.00 0.00 0.00 0.00 0.00 0.00 0.00 0.00 0.00 0.00
0.00 0.00 0.00 0.00 0.00 0.00 0.00 0.00 0.00 0.00 0.00 0.00 0.00 0.00 0.00 0.00 0.00 0.01 0.01 0.01 0.01 0.00 0.00 0.00 0.00 0.00 0.00 0.01 0.01 0.00 0.01 0.02 0.01 0.00 0.00 0.00 0.00 0.00 0.00 0.00 0.00 0.00 0.00
0.00 0.00 0.00 0.00 0.00 0.00 0.00 0.00 0.00 0.00 0.00 0.00 0.00 0.00 0.00 0.00 0.00 0.01 0.02 0.02 0.01 0.00 0.00 0.00 0.00 0.00 0.00 0.00 0.00 0.00 0.01 0.04 0.04 0.02 0.00 0.01 0.01 0.01 0.02 0.00 0.00 0.00 0.00
MSLP
1014.97 1015.27 1015.55 1015.82 1016.09 1016.37 1016.66 1016.94 1017.20 1017.41 1017.57 1017.67 1017.72 1017.75 1017.78 1017.85 1017.96 1018.14 1018.36 1018.60 1018.84 1019.05 1019.20 1019.28 1019.29 1019.24 1019.14 1019.02 1018.89 1018.76 1018.64 1018.52 1018.41 1018.29 1018.16 1018.02 1017.87 1017.69 1017.50 1017.29 1017.06 1016.83 1016.59
1014.57 1014.93 1015.28 1015.62 1015.97 1016.32 1016.67 1017.01 1017.31 1017.55 1017.73 1017.85 1017.91 1017.95 1017.99 1018.05 1018.16 1018.32 1018.53 1018.77 1019.01 1019.23 1019.41 1019.52 1019.56 1019.54 1019.45 1019.32 1019.16 1018.99 1018.81 1018.63 1018.46 1018.30 1018.15 1018.00 1017.85 1017.68 1017.50 1017.30 1017.08 1016.84 1016.60
1014.16 1014.59 1015.02 1015.45 1015.89 1016.33 1016.75 1017.14 1017.48 1017.75 1017.95 1018.08 1018.15 1018.19 1018.22 1018.26 1018.35 1018.48 1018.66 1018.87 1019.10 1019.32 1019.51 1019.65 1019.72 1019.73 1019.66 1019.54 1019.37 1019.16 1018.94 1018.70 1018.48 1018.27 1018.07 1017.90 1017.73 1017.56 1017.39 1017.20 1016.99 1016.77 1016.53
1013.80 1014.30 1014.82 1015.35 1015.88 1016.40 1016.89 1017.34 1017.71 1018.00 1018.21 1018.34 1018.40 1018.43 1018.44 1018.46 1018.51 1018.61 1018.74 1018.92 1019.11 1019.32 1019.51 1019.66 1019.77 1019.81 1019.77 1019.67 1019.50 1019.28 1019.03 1018.75 1018.47 1018.21 1017.97 1017.75 1017.56 1017.38 1017.20 1017.01 1016.81 1016.59 1016.36
1013.54 1014.11 1014.71 1015.33 1015.95 1016.54 1017.08 1017.56 1017.95 1018.25 1018.46 1018.58 1018.64 1018.66 1018.66 1018.65 1018.67 1018.72 1018.81 1018.94 1019.09 1019.26 1019.44 1019.59 1019.71 1019.78 1019.78 1019.71 1019.56 1019.35 1019.09 1018.79 1018.48 1018.17 1017.88 1017.62 1017.38 1017.16 1016.96 1016.75 1016.54 1016.32 1016.09
1013.41 1014.03 1014.70 1015.38 1016.06 1016.71 1017.29 1017.78 1018.18 1018.48 1018.68 1018.79 1018.85 1018.86 1018.85 1018.84 1018.84 1018.85 1018.90 1018.97 1019.08 1019.20 1019.34 1019.47 1019.59 1019.67 1019.70 1019.66 1019.55 1019.36 1019.11 1018.81 1018.48 1018.14 1017.82 1017.51 1017.22 1016.96 1016.70 1016.46 1016.22 1015.97 1015.72
1013.40 1014.05 1014.76 1015.48 1016.20 1016.87 1017.47 1017.97 1018.36 1018.65 1018.84 1018.96 1019.02 1019.04 1019.05 1019.04 1019.03 1019.03 1019.04 1019.06 1019.10 1019.17 1019.25 1019.34 1019.43 1019.51 1019.55 1019.54 1019.46 1019.31 1019.09 1018.81 1018.48 1018.13 1017.77 1017.42 1017.08 1016.76 1016.45 1016.16 1015.87 1015.58 1015.30
1013.48 1014.14 1014.85 1015.59 1016.32 1017.00 1017.59 1018.09 1018.47 1018.75 1018.94 1019.07 1019.15 1019.21 1019.25 1019.27 1019.28 1019.27 1019.26 1019.23 1019.21 1019.20 1019.21 1019.23 1019.28 1019.32 1019.35 1019.35 1019.30 1019.19 1019.01 1018.76 1018.45 1018.10 1017.72 1017.34 1016.95 1016.57 1016.20 1015.85 1015.51 1015.17 1014.85
1013.61 1014.25 1014.95 1015.68 1016.40 1017.06 1017.65 1018.13 1018.51 1018.79 1018.99 1019.15 1019.27 1019.38 1019.46 1019.53 1019.57 1019.58 1019.55 1019.49 1019.41 1019.32 1019.24 1019.18 1019.15 1019.13 1019.13 1019.12 1019.08 1018.99 1018.85 1018.63 1018.35 1018.01 1017.62 1017.21 1016.78 1016.36 1015.93 1015.52 1015.13 1014.75 1014.39
1013.74 1014.36 1015.03 1015.73 1016.42 1017.06 1017.63 1018.11 1018.49 1018.78 1019.02 1019.21 1019.39 1019.55 1019.70 1019.83 1019.92 1019.95 1019.92 1019.83 1019.69 1019.52 1019.34 1019.18 1019.06 1018.97 1018.91 1018.87 1018.81 1018.73 1018.60 1018.41 1018.15 1017.82 1017.44 1017.01 1016.55 1016.08 1015.61 1015.16 1014.72 1014.31 1013.92
1013.85 1014.43 1015.07 1015.73 1016.40 1017.02 1017.58 1018.05 1018.44 1018.76 1019.03 1019.27 1019.51 1019.74 1019.95 1020.14 1020.27 1020.33 1020.30 1020.19 1020.00 1019.76 1019.50 1019.24 1019.02 1018.84 1018.71 1018.61 1018.52 1018.42 1018.29 1018.10 1017.85 1017.53 1017.14 1016.69 1016.22 1015.72 1015.22 1014.73 1014.27 1013.84 1013.44
1013.91 1014.47 1015.08 1015.72 1016.36 1016.97 1017.53 1018.00 1018.41 1018.75 1019.05 1019.34 1019.63 1019.91 1020.18 1020.41 1020.59 1020.67 1020.65 1020.53 1020.30 1020.01 1019.67 1019.34 1019.02 1018.75 1018.54 1018.37 1018.22 1018.09 1017.93 1017.73 1017.46 1017.13 1016.73 1016.27 1015.77 1015.26 1014.74 1014.23 1013.76 1013.32 1012.92
1013.95 1014.50 1015.10 1015.72 1016.35 1016.95 1017.50 1017.99 1018.40 1018.77 1019.10 1019.41 1019.73 1020.05 1020.35 1020.62 1020.82 1020.92 1020.92 1020.79 1020.55 1020.22 1019.84 1019.44 1019.05 1018.71 1018.41 1018.16 1017.95 1017.75 1017.54 1017.30 1017.00 1016.64 1016.22 1015.75 1015.23 1014.70 1014.17 1013.65 1013.17 1012.73 1012.34
1013.98 1014.54 1015.14 1015.76 1016.39 1016.99 1017.54 1018.03 1018.45 1018.82 1019.15 1019.48 1019.80 1020.12 1020.43 1020.71 1020.92 1021.04 1021.04 1020.93 1020.69 1020.36 1019.96 1019.53 1019.10 1018.69 1018.33 1018.00 1017.72 1017.44 1017.16 1016.86 1016.51 1016.11 1015.66 1015.15 1014.62 1014.07 1013.52 1013.00 1012.51 1012.07 1011.68
1014.02 1014.61 1015.23 1015.87 1016.50 1017.10 1017.65 1018.13 1018.54 1018.89 1019.21 1019.51 1019.81 1020.11 1020.40 1020.67 1020.87 1021.00 1021.02 1020.92 1020.71 1020.40 1020.01 1019.58 1019.13 1018.69 1018.27 1017.88 1017.51 1017.16 1016.80 1016.42 1016.01 1015.55 1015.05 1014.52 1013.96 1013.39 1012.82 1012.29 1011.79 1011.34 1010.94
1014.11 1014.74 1015.39 1016.05 1016.69 1017.29 1017.82 1018.28 1018.67 1018.99 1019.26 1019.52 1019.77 1020.02 1020.27 1020.50 1020.69 1020.81 1020.84 1020.77 1020.60 1020.33 1019.98 1019.57 1019.13 1018.67 1018.22 1017.77 1017.33 1016.89 1016.45 1015.99 1015.50 1014.99 1014.44 1013.86 1013.27 1012.68 1012.09 1011.53 1011.01 1010.54 1010.10
1014.27 1014.94 1015.63 1016.30 1016.95 1017.54 1018.05 1018.47 1018.81 1019.08 1019.30 1019.49 1019.67 1019.86 1020.05 1020.23 1020.39 1020.50 1020.55 1020.51 1020.37 1020.15 1019.85 1019.48 1019.06 1018.60 1018.12 1017.63 1017.13 1016.62 1016.10 1015.56 1015.00 1014.42 1013.82 1013.20 1012.58 1011.96 1011.34 1010.75 1010.20 1009.68 1009.20
1014.50 1015.21 1015.93 1016.62 1017.26 1017.83 1018.31 1018.68 1018.97 1019.17 1019.32 1019.43 1019.54 1019.66 1019.79 1019.92 1020.04 1020.14 1020.18 1020.16 1020.06 1019.89 1019.63 1019.30 1018.90 1018.45 1017.95 1017.43 1016.87 1016.30 1015.70 1015.09 1014.47 1013.83 1013.19 1012.53 1011.88 1011.23 1010.58 1009.96 1009.35 1008.78 1008.25
1014.81 1015.56 1016.28 1016.97 1017.60 1018.13 1018.57 1018.89 1019.11 1019.25 1019.33 1019.38 1019.42 1019.47 1019.53 1019.61 1019.69 1019.75 1019.79 1019.77 1019.69 1019.54 1019.32 1019.01 1018.63 1018.18 1017.68 1017.12 1016.52 1015.90 1015.25 1014.58 1013.90 1013.22 1012.54 1011.85 1011.17 1010.49 1009.81 1009.15 1008.50 1007.87 1007.27
1015.20 1015.95 1016.68 1017.35 1017.94 1018.43 1018.81 1019.08 1019.24 1019.32 1019.34 1019.33 1019.31 1019.30 1019.31 1019.33 1019.36 1019.39 1019.40 1019.36 1019.28 1019.13 1018.91 1018.61 1018.24 1017.79 1017.27 1016.69 1016.07 1015.40 1014.71 1014.01 1013.30 1012.58 1011.87 1011.17 1010.46 1009.75 1009.04 1008.33 1007.63 1006.95 1006.29
1015.65 1016.39 1017.09 1017.72 1018.27 1018.71 1019.03 1019.24 1019.35 1019.38 1019.35 1019.29 1019.23 1019.17 1019.13 1019.10 1019.08 1019.06 1019.02 1018.95 1018.83 1018.66 1018.42 1018.11 1017.72 1017.26 1016.73 1016.14 1015.50 1014.82 1014.11 1013.39 1012.66 1011.93 1011.20 1010.48 1009.75 1009.01 1008.27 1007.52 1006.78 1006.04 1005.32
1016.14 1016.84 1017.49 1018.07 1018.56 1018.94 1019.20 1019.36 1019.42 1019.41 1019.35 1019.27 1019.17 1019.08 1018.99 1018.91 1018.84 1018.75 1018.65 1018.51 1018.34 1018.12 1017.85 1017.51 1017.10 1016.63 1016.09 1015.49 1014.85 1014.17 1013.46 1012.74 1012.01 1011.28 1010.55 1009.81 1009.06 1008.31 1007.53 1006.74 1005.95 1005.16 1004.40
1016.64 1017.29 1017.88 1018.39 1018.81 1019.12 1019.32 1019.43 1019.46 1019.42 1019.34 1019.23 1019.12 1019.00 1018.87 1018.74 1018.60 1018.44 1018.27 1018.06 1017.81 1017.53 1017.20 1016.82 1016.39 1015.91 1015.37 1014.79 1014.16 1013.50 1012.81 1012.11 1011.39 1010.67 1009.94 1009.19 1008.43 1007.64 1006.84 1006.01 1005.17 1004.34 1003.53
1017.14 1017.71 1018.23 1018.66 1019.00 1019.24 1019.38 1019.44 1019.44 1019.38 1019.28 1019.17 1019.03 1018.89 1018.73 1018.55 1018.35 1018.11 1017.86 1017.57 1017.25 1016.90 1016.52 1016.10 1015.65 1015.16 1014.64 1014.07 1013.48 1012.85 1012.20 1011.52 1010.83 1010.12 1009.39 1008.64 1007.86 1007.05 1006.21 1005.34 1004.46 1003.58 1002.73
1017.61 1018.10 1018.53 1018.88 1019.13 1019.30 1019.38 1019.40 1019.36 1019.28 1019.18 1019.05 1018.90 1018.73 1018.54 1018.31 1018.05 1017.75 1017.41 1017.05 1016.66 1016.25 1015.82 1015.38 1014.92 1014.44 1013.93 1013.40 1012.84 1012.26 1011.65 1011.01 1010.34 1009.65 1008.92 1008.16 1007.36 1006.52 1005.64 1004.74 1003.81 1002.89 1001.99
1018.04 1018.45 1018.79 1019.05 1019.22 1019.31 1019.34 1019.31 1019.24 1019.14 1019.02 1018.88 1018.72 1018.53 1018.30 1018.03 1017.71 1017.35 1016.95 1016.53 1016.08 1015.63 1015.17 1014.71 1014.25 1013.78 1013.30 1012.80 1012.29 1011.74 1011.16 1010.55 1009.91 1009.22 1008.49 1007.72 1006.90 1006.03 1005.12 1004.17 1003.21 1002.25 1001.31
Thickness
5682 5680 5677 5675 5673 5670 5668 5666 5665 5663 5661 5659 5657 5656 5654 5653 5651 5648 5644 5641 5638 5635 5633 5631 5629 5627 5626 5625 5624 5624 5623 5622 5622 5621 5621 5621 5622 5622 5623 5623 5624 5626 5627
5678 5675 5673 5670 5667 5664 5662 5660 5657 5655 5653 5651 5649 5648 5646 5645 5643 5640 5636 5633 5629 5626 5623 5621 5620 5618 5616 5615 5614 5614 5614 5613 5612 5612 5611 5612 5612 5612 5613 5614 5615 5616 5617
5674 5670 5666 5663 5660 5657 5654 5652 5649 5647 5645 5643 5642 5640 5639 5636 5634 5632 5629 5624 5620 5616 5614 5612 5610 5608 5607 5605 5604 5604 5604 5603 5602 5601 5601 5601 5602 5602 5603 5604 5605 5606 5607
5670 5665 5660 5656 5653 5650 5646 5643 5641 5638 5635 5634 5632 5632 5631 5628 5626 5623 5621 5616 5612 5608 5604 5602 5600 5598 5596 5595 5594 5593 5593 5592 5591 5591 5591 5591 5591 5591 5592 5593 5594 5595 5596
5665 5660 5654 5650 5646 5642 5638 5635 5631 5629 5625 5623 5623 5623 5622 5620 5618 5615 5612 5608 5603 5600 5596 5593 5590 5588 5586 5584 5583 5582 5581 5580 5579 5579 5579 5579 5579 5579 5580 5581 5582 5583 5584
5661 5655 5649 5644 5639 5634 5629 5626 5621 5618 5615 5614 5615 5615 5613 5612 5609 5606 5602 5599 5595 5591 5587 5584 5581 5577 5574 5572 5571 5570 5568 5567 5567 5566 5566 5566 5566 5566 5567 5568 5568 5570 5571
5655 5649 5643 5637 5632 5627 5622 5619 5614 5608 5604 5604 5604 5603 5603 5602 5600 5597 5593 5589 5586 5582 5578 5574 5570 5566 5563 5560 5558 5557 5555 5554 5552 5552 5551 5551 5551 5552 5552 5553 5555 5556 5557
5647 5641 5636 5630 5626 5620 5615 5610 5607 5600 5595 5594 5592 5591 5589 5588 5587 5588 5583 5579 5575 5571 5567 5563 5559 5555 5551 5548 5545 5543 5541 5539 5537 5536 5536 5536 5536 5536 5537 5538 5540 5541 5543
5638 5633 5628 5623 5618 5613 5607 5602 5598 5594 5586 5583 5581 5578 5575 5572 5570 5573 5572 5569 5564 5559 5555 5551 5547 5542 5538 5535 5532 5529 5525 5523 5522 5521 5520 5520 5519 5520 5521 5522 5523 5525 5526
5628 5625 5620 5615 5610 5605 5599 5594 5589 5585 5580 5574 5570 5567 5563 5559 5554 5552 5555 5556 5553 5548 5543 5540 5535 5530 5526 5521 5517 5513 5509 5507 5505 5504 5503 5502 5502 5503 5503 5504 5505 5506 5507
5619 5616 5612 5607 5602 5596 5590 5585 5580 5575 5571 5566 5561 5557 5553 5548 5543 5536 5534 5536 5536 5533 5530 5526 5523 5519 5515 5510 5505 5500 5495 5491 5489 5487 5486 5485 5485 5485 5485 5485 5485 5485 5486
5610 5607 5603 5599 5594 5588 5581 5575 5570 5565 5561 5556 5551 5546 5541 5536 5531 5525 5521 5520 5519 5519 5516 5513 5510 5507 5502 5498 5492 5486 5481 5477 5473 5471 5469 5469 5468 5467 5466 5465 5463 5462 5462
5602 5598 5595 5590 5585 5578 5572 5565 5559 5554 5550 5545 5540 5535 5530 5524 5519 5513 5506 5502 5502 5504 5504 5501 5497 5492 5487 5482 5476 5471 5466 5461 5457 5455 5453 5451 5449 5447 5444 5442 5439 5437 5435
5596 5591 5586 5581 5575 5569 5562 5555 5549 5544 5540 5535 5530 5524 5518 5512 5507 5500 5493 5487 5483 5485 5486 5485 5480 5475 5469 5464 5459 5454 5449 5444 5440 5437 5434 5431 5428 5424 5420 5416 5412 5408 5404
5587 5582 5577 5571 5565 5558 5552 5545 5540 5534 5530 5524 5518 5513 5507 5501 5495 5489 5482 5474 5465 5464 5468 5468 5462 5459 5452 5447 5441 5436 5431 5425 5421 5417 5412 5407 5402 5397 5392 5386 5381 5377 5373
5579 5574 5568 5561 5555 5548 5542 5536 5530 5525 5519 5514 5508 5501 5495 5490 5483 5477 5469 5462 5454 5448 5448 5450 5443 5437 5432 5427 5421 5416 5410 5404 5398 5391 5385 5379 5374 5369 5364 5359 5356 5353 5351
5570 5565 5559 5552 5545 5538 5532 5526 5520 5514 5508 5503 5497 5491 5485 5479 5471 5464 5456 5449 5441 5434 5433 5435 5426 5419 5413 5407 5402 5395 5388 5382 5374 5367 5360 5354 5349 5345 5342 5340 5339 5338 5338
5560 5555 5549 5542 5534 5528 5522 5516 5510 5504 5498 5492 5486 5480 5473 5467 5459 5451 5443 5435 5427 5420 5414 5415 5411 5402 5394 5387 5382 5376 5368 5359 5351 5344 5338 5333 5330 5327 5327 5327 5328 5330 5331
5549 5544 5538 5530 5523 5517 5511 5505 5499 5493 5487 5481 5475 5468 5461 5454 5445 5437 5429 5421 5413 5406 5398 5393 5392 5383 5375 5366 5361 5355 5347 5338 5329 5323 5319 5316 5315 5315 5317 5318 5321 5323 5324
5538 5532 5525 5518 5511 5505 5499 5493 5487 5481 5475 5469 5464 5457 5450 5442 5433 5425 5417 5407 5399 5391 5382 5375 5371 5365 5356 5347 5338 5333 5330 5320 5312 5306 5305 5304 5305 5307 5308 5310 5313 5316 5319
5525 5519 5512 5505 5499 5494 5487 5480 5474 5468 5462 5456 5451 5444 5437 5430 5422 5414 5405 5396 5386 5376 5366 5358 5353 5346 5338 5328 5319 5312 5308 5306 5301 5294 5297 5297 5297 5300 5301 5303 5306 5310 5314
5512 5506 5499 5493 5487 5482 5475 5468 5462 5455 5449 5443 5437 5431 5424 5416 5409 5401 5392 5381 5370 5359 5349 5340 5334 5325 5319 5308 5301 5295 5291 5291 5294 5289 5288 5293 5291 5295 5297 5300 5303 5308 5312
5499 5493 5487 5482 5476 5469 5463 5457 5450 5443 5436 5430 5424 5417 5411 5403 5394 5385 5376 5366 5353 5339 5329 5320 5315 5306 5299 5292 5286 5284 5280 5279 5283 5281 5280 5290 5290 5292 5294 5296 5299 5304 5308
5488 5482 5476 5471 5465 5459 5452 5445 5438 5431 5424 5417 5411 5404 5396 5388 5379 5371 5363 5351 5337 5324 5313 5304 5297 5292 5285 5281 5277 5276 5275 5276 5278 5275 5272 5279 5286 5289 5292 5292 5294 5299 5304
5476 5470 5465 5460 5454 5447 5441 5433 5427 5418 5411 5404 5397 5390 5381 5373 5366 5358 5347 5335 5323 5311 5299 5290 5284 5279 5276 5274 5271 5269 5267 5265 5270 5273 5267 5268 5276 5281 5287 5289 5292 5295 5299
5465 5460 5454 5449 5443 5436 5430 5423 5416 5406 5399 5392 5384 5375 5366 5358 5349 5339 5327 5316 5308 5299 5289 5282 5276 5272 5269 5266 5263 5259 5255 5254 5257 5262 5262 5260 5262 5262 5279 5288 5287 5289 5293